User: anonymous   Login
Location: Narvik
(68.4360°N, 17.4370°E)
Time: 08:31:54
(UTC+02:00)
Language:

DX 1 - Orbit

View from above orbital plane
View from above orbital plane
View from above satellite
View from above satellite

Ground track
Ground track

The orbit data is extracted from the following two-line orbital elements,

1 40071U 14037C   19236.90199643  .00000012  00000-0  90741-5 0  9998
2 40071  98.4352  34.2480 0008916  18.8349 341.3198 14.81283939277208
Epoch (UTC): 24 August 2019 21:38:52
Eccentricity: 0.0008916
inclination: 98.4352°
perigee height: 619 km
apogee height: 631 km
right ascension of ascending node: 34.2480°
argument of perigee: 18.8349°
revolutions per day: 14.81283939
mean anomaly at epoch: 341.3198°
orbit number at epoch: 27720

The dashed part of the orbit path shows where the satellite is in the earth's shadow,  

DLR